Location: Namasale
(1.5000°N, 32.6167°E)
Time: 17:52:53
(UTC+00:00)

Courier 1B - Pass Details

Date: 21 April 2021
Orbit: 962 x 1209 km, 28.3° (Epoch: 18 May)

Event Time Altitude Azimuth Distance (km) Brightness Sun altitude
Rises 14:44:36 0° 327° (NNW) 3,629 11.2 15.9°
Reaches altitude 10° 14:48:37 10° 351° (N) 2,702 10.2 14.9°
Maximum altitude 14:52:02 15° 23° (NNE) 2,407 9.5 14.0°
Drops below altitude 10° 14:55:31 10° 55° (NE) 2,762 9.5 13.2°
Sets 14:59:41 0° 78° (ENE) 3,763 10.0 12.2°
